Location: Newark
(22.3060°N, 114.2134°E)
Time: 02:54:00
(UTC+00:00)

Vanguard 2 - Pass Details

Date: 05 August 2021
Orbit: 553 x 2937 km, 32.9° (Epoch: 27 September)

Event Time Altitude Azimuth Distance (km) Brightness Sun altitude
Rises 19:27:55 0° 270° (W) 3,042 - -31.4°
Reaches altitude 10° 19:30:41 10° 281° (WNW) 1,955 - -30.9°
Maximum altitude 19:34:24 29° 343° (NNW) 1,029 - -30.2°
Exits shadow 19:35:39 24° 16° (NNE) 1,153 8.9 -29.9°
Drops below altitude 10° 19:37:55 10° 46° (NE) 1,837 10.4 -29.5°
Sets 19:40:27 0° 58° (ENE) 2,822 11.7 -29.0°
